[[{"header":{"parameterUnit":"m.s-1","parameterCategory":1,"la1":30.2991,"la2":30.254,"lo1":-89.0895,"lo2":-89.0444,"dy":0.0017,"dx":0.0017,"nx":28,"ny":28,"refTime":"2024-11-26T09:00:00:Z","depth":0,"parameterNumber":2,"parameterNumberName":"U-component_of_WINDS"},"data":[0,0,0,0,0,0,0,0,0,0,0,0,0,0,0,0,0,0,0,0,0,0,0,0,0,0,0,0,0,0,0,0,0,0,0,0,0,0,0,0,0,0,0,0,0,0,0,0,0,0,0,0,0,0,0,0,0,0,2.8833,2.8833,0,2.881,2.881,2.881,2.8719,2.8717,2.8715,2.8713,2.8691,2.8692,2.8694,0,0,0,0,0,0,0,0,0,0,0,0,0,2.8801,2.8802,2.8833,2.8833,2.8832,2.881,2.881,2.8809,2.8719,2.8717,2.8714,2.8712,2.8691,2.8692,2.8694,0,0,0,0,0,0,0,0,0,0,0,0,0,2.88,2.8802,2.8833,2.8785,2.878,2.881,2.881,2.8809,2.872,2.8717,2.8713,2.871,2.869,2.8692,2.8694,2.877,0,0,2.87,2.8701,0,0,0,0,0,0,0,0,2.88,2.8801,2.8792,2.8788,2.8783,2.8764,2.879,2.8796,2.872,2.8743,2.8713,2.8709,2.8718,2.8718,2.872,2.8769,2.8768,2.8701,2.8702,2.8703,2.8703,0,0,0,0,0,0,0,2.88,2.8802,2.8824,2.8792,2.8787,2.8765,2.8761,2.8791,2.8748,2.8741,2.8734,2.8732,2.8715,2.8718,2.8719,2.8767,2.87,2.8702,2.8704,2.8704,2.8876,2.8879,0,0,0,0,0,0,2.8807,2.8802,2.8825,2.8823,2.8784,2.8768,2.8764,2.8773,2.8748,2.8741,2.8735,2.8728,2.8716,2.8717,2.8718,2.8804,2.8703,2.8705,2.8706,2.8873,2.8877,2.888,0,0,0,0,0,0,2.8807,2.881,2.8826,2.8811,2.8811,2.8772,2.8783,2.8775,2.8778,2.8743,2.8736,2.8746,2.8714,2.8715,2.8757,2.8802,2.8706,2.8707,2.8869,2.8874,2.8879,2.8977,0,0,0,0,0,0,2.8806,2.881,2.8838,2.8812,2.8812,2.8865,2.8786,2.8776,2.8781,2.8772,2.8752,2.8746,2.8712,2.8755,2.8759,2.8803,2.8709,2.8865,2.8871,2.8877,2.8969,2.8984,2.8997,0,0,0,0,0,2.8805,2.8867,2.884,2.8843,2.8846,2.8868,2.8868,2.8827,2.8785,2.8813,2.8791,2.8746,2.8797,2.876,2.8764,2.8809,2.8862,2.8869,2.8877,2.8963,2.8981,2.8997,0,0,0,0,0,0,2.8899,2.8863,2.8832,2.8887,2.8881,2.8852,2.8886,2.8848,2.8854,2.8845,2.8795,2.8791,2.884,2.8829,2.8789,2.8881,2.8822,2.883,2.8886,2.8903,2.8917,2.8918,2.8711,0,0,0,0,0,2.8927,2.8946,2.8913,2.8965,2.8964,2.8926,2.8934,2.8903,2.8894,2.8892,2.8873,2.8867,2.8881,2.8892,2.8903,2.8968,2.8962,2.9001,2.9015,2.9027,2.9034,2.9067,2.9084,2.8905,2.8905,2.8905,0,0,2.8983,2.8965,2.8981,2.8984,2.8975,2.8997,2.8924,2.8951,2.8966,2.8896,2.8933,2.892,2.8911,2.8964,2.8987,2.8956,2.9083,2.9036,2.9046,2.9047,2.9077,2.9094,2.9109,2.891,2.8909,2.8908,0,0,2.9096,2.9085,2.9126,2.912,2.9108,2.9082,2.9093,2.9069,2.9057,2.9095,2.9042,2.9061,2.9087,2.9082,2.9083,2.9196,2.9154,2.9201,2.9274,2.9306,2.932,2.9333,2.9372,2.9386,2.9209,2.921,2.921,0,2.9167,2.9197,2.9153,2.9182,2.9185,2.9122,2.9164,2.916,2.9153,2.9157,2.9123,2.9154,2.9143,2.9194,2.9222,2.9225,2.9235,2.9202,2.9322,2.9334,2.9344,2.9381,2.9396,2.9215,2.9215,2.9214,2.9213,0,2.9285,2.9307,2.9343,2.9336,2.9343,2.9379,2.9341,2.9353,2.9323,2.9301,2.934,2.9325,2.9332,2.9343,2.9313,2.939,2.9371,2.9331,2.927,2.9368,2.9401,2.9415,2.9223,2.9221,2.922,2.9218,0,0,2.9455,2.9424,2.9438,2.9434,2.9417,2.9433,2.9467,2.9473,2.9485,2.9483,2.9509,2.9533,2.9495,2.9497,2.9466,2.9495,2.9584,2.9451,2.945,2.9475,2.9667,2.9696,2.9713,2.9558,2.956,2.9562,2.9667,0,2.9562,2.9615,2.9577,2.9638,2.9657,2.9598,2.9627,2.962,2.9602,2.9616,2.9596,2.9613,2.9562,2.9563,2.9589,2.9568,2.9622,2.956,2.9581,2.9583,2.9583,2.9731,2.9762,2.9861,2.968,2.9682,2.9684,0,2.9692,2.9695,2.9758,2.9736,2.9743,2.977,2.9772,2.9787,2.9778,2.9762,2.9765,2.9727,2.9759,2.9701,2.9744,2.9702,2.9709,2.9701,2.9704,2.9702,2.9638,2.9732,2.9892,2.9907,2.9705,2.9703,2.9701,0,2.9808,2.9828,2.9867,2.9866,2.9843,2.9863,2.9854,2.9842,2.9849,2.9852,2.9855,2.9863,2.9866,2.9873,2.9838,2.98,2.9886,2.9825,2.9873,2.9874,2.9892,2.9891,3.0054,2.99,2.99,2.99,2.9899,0,2.993,2.997,2.9919,2.9943,2.9987,2.9943,2.9987,2.9973,2.9963,2.9983,2.9934,2.9955,2.9909,2.9925,2.9899,2.9938,2.9941,2.9929,2.9921,2.9932,2.9933,2.9934,2.9925,2.9904,2.9903,2.9902,2.9901,0,3.0066,3.0033,3.0072,3.0047,3.0041,3.0074,3.0053,3.0075,3.0053,3.008,3.0084,3.005,3.0067,3.0033,3.0046,3.0028,3.0083,3.0065,3.0085,3.0079,3.0128,3.0124,3.0296,3.0316,3.0152,3.0153,3.0155,0,3.0144,3.0173,3.0151,3.0161,3.0155,3.0172,3.0178,3.0137,3.0145,3.0138,3.0161,3.0173,3.018,3.021,3.0187,3.0196,3.0177,3.0237,3.0178,3.0188,3.0176,3.0174,3.0176,3.0248,3.025,3.0252,3.0253,0,3.0287,3.0269,3.0279,3.0284,3.0293,3.0295,3.0294,3.0305,3.0261,3.0273,3.0289,3.0295,3.0308,3.032,3.0324,3.0316,3.0278,3.0273,3.0284,3.0294,3.0304,3.0298,3.0116,3.0268,3.0267,3.0266,3.0265,3.0264,3.0395,3.0418,3.0406,3.0419,3.0413,3.0413,3.0432,3.0413,3.0425,3.0431,3.0407,3.0429,3.042,3.0421,3.0417,3.0434,3.0407,3.0424,3.0427,3.0432,3.0439,3.0303,3.0435,3.0434,3.0434,3.0433,3.0433,0,3.0533,3.0523,3.0535,3.0535,3.0545,3.0508,3.0505,3.0516,3.0535,3.053,3.0539,3.0557,3.057,3.0548,3.0557,3.0575,3.0557,3.0578,3.0575,3.0574,3.0463,3.0451,3.0592,3.0592,3.0592,3.0592,3.0592,3.0592,3.0606,3.0643,3.0625,3.0658,3.0648,3.0667,3.0669,3.0669,3.0664,3.0687,3.0696,3.0682,3.0671,3.0679,3.0689,3.0682,3.0687,3.0714,3.0701,3.0597,3.0582,3.0567,3.0556,3.0716,3.0716,3.081,3.0811,3.0812]},{"header":{"parameterUnit":"m.s-1","parameterCategory":1,"la1":30.2991,"la2":30.254,"lo1":-89.0895,"lo2":-89.0444,"dy":0.0017,"dx":0.0017,"nx":28,"ny":28,"refTime":"2024-11-26T09:00:00:Z","depth":0,"parameterNumber":3,"parameterNumberName":"V-component_of_WINDS"},"data":[0,0,0,0,0,0,0,0,0,0,0,0,0,0,0,0,0,0,0,0,0,0,0,0,0,0,0,0,0,0,0,0,0,0,0,0,0,0,0,0,0,0,0,0,0,0,0,0,0,0,0,0,0,0,0,0,0,0,2.5327,2.5326,0,2.5284,2.5283,2.5283,2.5262,2.5262,2.5262,2.5262,2.5215,2.5214,2.5213,0,0,0,0,0,0,0,0,0,0,0,0,0,2.5388,2.5387,2.5327,2.5326,2.5326,2.5284,2.5283,2.5282,2.5262,2.5262,2.5262,2.5262,2.5216,2.5214,2.5213,0,0,0,0,0,0,0,0,0,0,0,0,0,2.5355,2.5387,2.5327,2.5311,2.5309,2.5284,2.5283,2.5282,2.5262,2.5262,2.5262,2.5262,2.5216,2.5214,2.5212,2.52,0,0,2.5207,2.5206,0,0,0,0,0,0,0,0,2.5357,2.5353,2.5313,2.5312,2.5309,2.5278,2.5288,2.5254,2.5262,2.528,2.5262,2.5262,2.5236,2.5232,2.5224,2.5197,2.5195,2.5206,2.5205,2.5204,2.5204,0,0,0,0,0,0,0,2.5359,2.5355,2.531,2.5313,2.531,2.5304,2.53,2.5281,2.5258,2.5278,2.5277,2.5272,2.5235,2.5226,2.5223,2.5195,2.5206,2.5205,2.5204,2.5203,2.5154,2.5154,0,0,0,0,0,0,2.5365,2.5357,2.5311,2.5308,2.5334,2.5303,2.5298,2.5288,2.5258,2.5254,2.5272,2.5271,2.5229,2.5225,2.5221,2.5204,2.5204,2.5203,2.5201,2.5154,2.5154,2.5154,0,0,0,0,0,0,2.5366,2.5361,2.5313,2.5332,2.5325,2.5302,2.5291,2.5287,2.5279,2.5254,2.5249,2.5267,2.5229,2.5224,2.5205,2.5202,2.5202,2.52,2.5154,2.5154,2.5154,2.5169,0,0,0,0,0,0,2.5368,2.5361,2.5357,2.5332,2.5325,2.5298,2.5291,2.5286,2.5276,2.5274,2.5248,2.5244,2.5229,2.5208,2.5203,2.5199,2.5198,2.5155,2.5154,2.5154,2.5169,2.5169,2.517,0,0,0,0,0,2.537,2.5363,2.5357,2.5352,2.5319,2.5298,2.5294,2.5278,2.5276,2.527,2.5254,2.5245,2.5203,2.5206,2.5201,2.5196,2.5155,2.5154,2.5154,2.5168,2.5169,2.517,0,0,0,0,0,0,2.5387,2.5359,2.5353,2.5337,2.532,2.5295,2.5288,2.5279,2.5262,2.5261,2.5241,2.5235,2.5218,2.5205,2.5209,2.5181,2.5178,2.5176,2.5191,2.5191,2.5192,2.5195,2.5197,0,0,0,0,0,2.5389,2.5376,2.5352,2.534,2.5332,2.5312,2.5302,2.5291,2.5272,2.5265,2.5247,2.5229,2.5212,2.5201,2.5183,2.5167,2.516,2.516,2.5161,2.5162,2.516,2.515,2.5149,2.5153,2.5153,2.5153,0,0,2.5393,2.5376,2.5369,2.5343,2.5329,2.5314,2.5306,2.5291,2.528,2.5262,2.5244,2.523,2.5208,2.519,2.5181,2.5179,2.5158,2.5161,2.5162,2.516,2.5149,2.5149,2.5149,2.5153,2.5153,2.5153,0,0,2.5392,2.5378,2.5367,2.5353,2.5332,2.5318,2.5315,2.5291,2.5282,2.5263,2.525,2.5235,2.5206,2.5191,2.5179,2.5173,2.5163,2.5167,2.517,2.516,2.516,2.5159,2.5156,2.5155,2.5166,2.5166,2.5166,0,2.5399,2.5378,2.5362,2.5348,2.5337,2.5321,2.5309,2.5296,2.5269,2.5261,2.5259,2.5222,2.5206,2.5184,2.5182,2.5174,2.5169,2.517,2.5161,2.5161,2.516,2.5157,2.5156,2.5167,2.5167,2.5167,2.5167,0,2.5387,2.5373,2.5366,2.5342,2.533,2.5317,2.5297,2.5287,2.5277,2.5263,2.5243,2.5224,2.5202,2.5196,2.5186,2.5172,2.5171,2.5165,2.5161,2.5161,2.5157,2.5156,2.5168,2.5168,2.5168,2.5167,0,0,2.5396,2.5364,2.5361,2.535,2.5325,2.5313,2.5299,2.5278,2.5269,2.5251,2.5238,2.5214,2.5208,2.5195,2.5183,2.5174,2.5169,2.5169,2.5168,2.5169,2.5151,2.5156,2.5155,2.5162,2.5162,2.5162,2.5153,0,2.5392,2.5367,2.5351,2.5332,2.5317,2.5302,2.5289,2.5272,2.5259,2.5244,2.5229,2.5212,2.5206,2.5198,2.5188,2.5171,2.5165,2.5172,2.5149,2.5148,2.5154,2.5153,2.5157,2.515,2.5152,2.5151,2.5151,0,2.5383,2.5367,2.5346,2.5323,2.5316,2.5305,2.5284,2.5271,2.5251,2.5241,2.5227,2.5214,2.5197,2.5195,2.5171,2.5176,2.5165,2.5155,2.5155,2.5152,2.5149,2.5149,2.5148,2.5146,2.5149,2.5149,2.5149,0,2.5391,2.5364,2.5348,2.5338,2.5311,2.5303,2.5291,2.5271,2.5259,2.5241,2.5233,2.5213,2.5202,2.5186,2.5168,2.5168,2.5145,2.5142,2.5136,2.5137,2.5132,2.5132,2.5128,2.5126,2.5126,2.5126,2.5126,0,2.5388,2.5375,2.5351,2.5341,2.5326,2.5308,2.5294,2.528,2.5262,2.5249,2.5234,2.5221,2.5199,2.5183,2.5169,2.515,2.5145,2.5137,2.5133,2.5138,2.5139,2.513,2.513,2.5126,2.5126,2.5126,2.5126,0,2.5394,2.5377,2.5358,2.5334,2.5327,2.5317,2.5296,2.5285,2.5271,2.5253,2.5248,2.5225,2.5206,2.5187,2.516,2.5151,2.5132,2.5127,2.5139,2.5137,2.5133,2.5133,2.5122,2.512,2.512,2.512,2.512,0,2.5393,2.5383,2.5357,2.5348,2.5336,2.532,2.5309,2.529,2.5278,2.5254,2.5246,2.5226,2.5208,2.5178,2.5158,2.5137,2.5132,2.5129,2.5128,2.5133,2.5131,2.5132,2.513,2.513,2.513,2.513,2.513,0,2.5392,2.5384,2.5368,2.5349,2.5336,2.532,2.5303,2.5296,2.5274,2.5261,2.5241,2.5228,2.5201,2.518,2.5158,2.5144,2.5133,2.5131,2.5128,2.5133,2.514,2.5135,2.514,2.5131,2.5131,2.5131,2.5131,2.5131,2.5394,2.5384,2.5365,2.5347,2.5333,2.5318,2.5306,2.5291,2.5274,2.5252,2.5241,2.5221,2.52,2.5169,2.5155,2.5138,2.5135,2.5132,2.5131,2.513,2.5131,2.5143,2.5134,2.5134,2.5134,2.5134,2.5134,0,2.5392,2.5379,2.5363,2.534,2.5326,2.5318,2.5299,2.5288,2.5271,2.5252,2.5236,2.5213,2.5192,2.5171,2.515,2.514,2.5135,2.5135,2.5135,2.5132,2.5135,2.5139,2.514,2.514,2.514,2.514,2.514,2.514,2.5389,2.5373,2.5362,2.5338,2.5324,2.5305,2.5295,2.528,2.5265,2.524,2.5224,2.5211,2.5191,2.5168,2.5148,2.5142,2.5135,2.5137,2.5129,2.5132,2.5132,2.5132,2.5135,2.5135,2.5135,2.5128,2.5128,2.5128]}]]